Location: Asheville, NC
(35.6000°N, 82.5500°W)
Time: 02:39:16
(UTC-04:00)

STRAND 1 - Pass Details

Date: 13 March 2018
Orbit: 769 x 781 km, 98.5° (Epoch: 20 June)

Event Time Altitude Azimuth Distance (km) Brightness Sun altitude
Rises 06:49:17 0° 116° (ESE) 3,253 ? -11.9°
Reaches altitude 10° 06:52:54 10° 89° (E) 2,330 ? -11.2°
Maximum altitude 06:55:07 13° 63° (ENE) 2,134 ? -10.7°
Drops below altitude 10° 06:57:21 10° 37° (NE) 2,336 ? -10.3°
Sets 07:00:59 0° 10° (N) 3,269 ? -9.5°
